This demonstration page uses our WeatherBlox Daily Observations layout. Learn more.

Left ArrowRight Arrow

39.29038, -76.61219

Hourly Observations for June 16, 2020

Temp ( °F °C ) Dew Point ( °F °C ) Humidity (%) Winds ( mph kmh ) Pressure ( in mb ) Visibility ( mi km ) Precip ( " mm )
12:54 am 00:54 Cloudy 65 18.3 51 10.6 61 61 E 10 17 30.34 1028 10 16 0.00 0.00
1:54 am 01:54 Cloudy 65 18.3 51 10.6 61 61 ENE 10 17 30.33 1027 10 16 0.00 0.00
2:54 am 02:54 Cloudy 65 18.3 50 10 59 59 ENE 7 11 30.32 1027 10 16 0.00 0.00
3:54 am 03:54 Cloudy 64 17.8 49 9.4 58 58 NE 8 13 30.32 1027 10 16 0.00 0.00
4:54 am 04:54 Cloudy 63 17.2 50 10 63 63 NNE 7 11 30.33 1027 10 16 0.00 0.00
5:54 am 05:54 Cloudy 63 17.2 50 10 63 63 NE 7 11 30.34 1027 10 16 0.00 0.00
6:54 am 06:54 Cloudy 63 17.2 50 10 63 63 NNE 7 11 30.34 1027 10 16 0.00 0.00
7:54 am 07:54 Mostly Cloudy 65 18.3 50 10 59 59 NNE 8 13 30.34 1028 10 16 0.00 0.00
8:54 am 08:54 Mostly Cloudy 67 19.4 48 8.9 51 51 NE 13 20 30.35 1028 10 16 0.00 0.00
9:54 am 09:54 Mostly Cloudy 70 21.1 49 9.4 47 47 NE 15 24 30.34 1027 10 16 0.00 0.00
10:54 am 10:54 Mostly Cloudy 74 23.3 50 10 43 43 NE 17 28 30.32 1027 10 16 0.00 0.00
11:54 am 11:54 Mostly Cloudy 74 23.3 48 8.9 40 40 E 20 31 30.32 1027 10 16 0.00 0.00
12:54 pm 12:54 Mostly Cloudy 74 23.3 49 9.4 41 41 E 14 22 30.32 1027 10 16 0.00 0.00
1:54 pm 13:54 Mostly Cloudy 74 23.3 50 10 43 43 E 14 22 30.31 1027 10 16 0.00 0.00
2:54 pm 14:54 Mostly Cloudy 77 25 50 10 39 39 ENE 17 28 30.29 1026 10 16 0.00 0.00
3:54 pm 15:54 Mostly Cloudy 77 25 50 10 39 39 E 15 24 30.28 1025 10 16 0.00 0.00
4:54 pm 16:54 Mostly Cloudy 77 25 49 9.4 37 37 E 20 31 30.26 1025 10 16 0.00 0.00
5:54 pm 17:54 Mostly Cloudy 76 24.4 50 10 40 40 E 18 30 30.25 1024 10 16 0.00 0.00
6:54 pm 18:54 Mostly Cloudy 74 23.3 50 10 43 43 E 14 22 30.25 1024 10 16 0.00 0.00
7:54 pm 19:54 Mostly Cloudy 72 22.2 48 8.9 43 43 ENE 12 19 30.24 1024 10 16 0.00 0.00
8:54 pm 20:54 Mostly Cloudy 70 21.1 50 10 49 49 E 10 17 30.24 1024 10 16 0.00 0.00
9:54 pm 21:54 Mostly Cloudy 70 21.1 50 10 49 49 ENE 10 17 30.25 1025 10 16 0.00 0.00
10:54 pm 22:54 Mostly Cloudy 68 20 54 12.2 61 61 E 12 19 30.26 1025 10 16 0.00 0.00
11:54 pm 23:54 Mostly Cloudy 67 19.4 56 13.3 68 68 E 9 15 30.25 1025 10 16 0.00 0.00

Powered by AerisWeather